Location: Unspecified
(35.7250°N, 0.0000°E)
Time: 19:48:48
(UTC+00:00)

Vanguard 1 Rocket - Pass Details

Date: 20 June 2019
Orbit: 651 x 4225 km, 34.3° (Epoch: 20 July)

Event Time Altitude Azimuth Distance (km) Brightness Sun altitude
Rises 14:51:03 0° 212° (SSW) 8,386 12.6 51.5°
Reaches altitude 10° 14:58:09 10° 205° (SSW) 7,113 12.3 50.1°
Maximum altitude 15:16:44 34° 150° (SSE) 4,070 10.9 46.3°
Drops below altitude 10° 15:28:10 10° 91° (E) 4,454 10.6 44.0°
Sets 15:31:19 0° 82° (E) 5,044 10.8 43.3°
